Chicago Executive, IL

1:50 AM CST on December 10, 2019 (GMT -0600)
Chicago Executive

Weather History for KPWK - October, 2019

Change the Weather History Date:

Thursday, October 24, 2019

  Actual Average Record
Temperature  
Mean Temperature 48 °F 49 °F  
Max Temperature 52 °F 59 °F 78 °F (2012)
Min Temperature 43 °F 40 °F 27 °F (1999)
Degree Days  
Heating Degree Days 18 16  
Month to date heating degree days 254 289  
Since 1 July heating degree days 261 401  
Cooling Degree Days 0 0  
Month to date cooling degree days 13 11  
Year to date cooling degree days 996 789  
Moisture  
Dew Point 38 °F    
Average Humidity 72    
Maximum Humidity 86    
Minimum Humidity 52    
Precipitation  
Precipitation 0.01 in 0.10 in 0.72 in (2001)
Month to date precipitation 2.47 2.35  
Year to date precipitation 39.16 28.04  
Sea Level Pressure  
Sea Level Pressure 30.23 in    
Wind  
Wind Speed 6 mph ()    
Max Wind Speed 13 mph    
Max Gust Speed 18 mph    
Visibility 10.0 miles    
Events      
T = Trace of Precipitation, MM = Missing Value Source: Averaged Metar Reports

Daily Weather History Graph

Daily Weather History Graph

Search for Another Location

Airport or City:

Astronomy

Oct. 24, 2019 Rise Set
Actual Time 7:14 AM CDT 5:56 PM CDT
Civil Twilight 6:45 AM CDT 6:25 PM CDT
Nautical Twilight 6:13 AM CDT 6:57 PM CDT
Astronomical Twilight 5:40 AM CDT 7:30 PM CDT
Moon 2:37 AM CDT (10/24) 4:29 PM CDT (10/24)
Length of Visible Light 11h 39m
Length of Day
10h 42m
Waning Crescent, 16% of the Moon is Illuminated
Oct 24
Waning Crescent
Oct 27
New
Nov 4
First Quarter
Nov 12
Full
Nov 19
Last Quarter

Hourly Weather History & Observations

Time (CDT) Temp. Windchill Dew Point Humidity Pressure Visibility Wind Dir Wind Speed Gust Speed Precip Events Conditions
12:22 AM 46.0 °F 41.4 °F 42.1 °F 86% 30.02 in 10.0 mi North 9.2 mph - 0.01 in   Overcast
12:34 AM 46.0 °F 42.5 °F 42.1 °F 86% 30.02 in 10.0 mi North 6.9 mph - 0.01 in   Overcast
12:41 AM 46.0 °F 41.4 °F 42.1 °F 86% 30.02 in 10.0 mi North 9.2 mph - 0.01 in   Overcast
12:52 AM 46.0 °F 41.4 °F 42.1 °F 86% 30.04 in 10.0 mi North 9.2 mph 18.4 mph 0.01 in   Overcast
1:39 AM 45.0 °F 41.2 °F 39.9 °F 82% 30.07 in 10.0 mi North 6.9 mph - N/A   Overcast
1:52 AM 45.0 °F 43.5 °F 39.9 °F 82% 30.08 in 10.0 mi North 3.5 mph - N/A   Overcast
2:52 AM 44.1 °F 40.8 °F 39.0 °F 82% 30.11 in 10.0 mi NNW 5.8 mph - N/A   Overcast
3:12 AM 43.0 °F 40.3 °F 39.0 °F 86% 30.11 in 10.0 mi NNW 4.6 mph - N/A   Mostly Cloudy
3:52 AM 44.1 °F 41.5 °F 39.0 °F 82% 30.14 in 10.0 mi WNW 4.6 mph - N/A   Overcast
4:52 AM 44.1 °F 39.5 °F 39.0 °F 82% 30.17 in 10.0 mi WNW 8.1 mph - N/A   Overcast
5:52 AM 44.1 °F 39.5 °F 39.0 °F 82% 30.20 in 10.0 mi NW 8.1 mph - N/A   Overcast
6:52 AM 44.1 °F 40.1 °F 39.0 °F 82% 30.22 in 10.0 mi NW 6.9 mph - N/A   Overcast
7:52 AM 43.0 °F 39.5 °F 37.9 °F 82% 30.26 in 10.0 mi NW 5.8 mph - N/A   Clear
8:52 AM 45.0 °F 41.2 °F 37.0 °F 74% 30.29 in 10.0 mi NNW 6.9 mph - N/A   Clear
9:52 AM 46.9 °F - 37.9 °F 71% 30.30 in 10.0 mi NNW 6.9 mph - N/A   Clear
10:52 AM 48.9 °F - 36.0 °F 61% 30.31 in 10.0 mi NW 6.9 mph - N/A   Partly Cloudy
11:52 AM 50.0 °F - 34.0 °F 54% 30.32 in 10.0 mi Variable 4.6 mph - N/A   Clear
12:52 PM 51.1 °F - 34.0 °F 52% 30.32 in 10.0 mi NW 4.6 mph - N/A   Clear
1:52 PM 51.1 °F - 34.0 °F 52% 30.31 in 10.0 mi NNW 4.6 mph - N/A   Clear
2:52 PM 51.1 °F - 34.0 °F 52% 30.32 in 10.0 mi NW 5.8 mph - N/A   Mostly Cloudy
3:52 PM 51.1 °F - 35.1 °F 54% 30.32 in 10.0 mi WNW 8.1 mph - N/A   Overcast
4:52 PM 50.0 °F - 35.1 °F 57% 30.32 in 10.0 mi NNW 5.8 mph - N/A   Clear
5:52 PM 48.0 °F - 35.1 °F 61% 30.32 in 10.0 mi Calm Calm - N/A   Overcast
6:52 PM 46.9 °F - 37.0 °F 68% 30.33 in 10.0 mi Calm Calm - N/A   Scattered Clouds
7:52 PM 45.0 °F - 37.0 °F 74% 30.35 in 10.0 mi Calm Calm - N/A   Mostly Cloudy
8:52 PM 46.0 °F - 37.9 °F 73% 30.37 in 10.0 mi Calm Calm - N/A   Overcast
9:52 PM 46.0 °F 43.9 °F 37.0 °F 71% 30.38 in 10.0 mi NNW 4.6 mph - N/A   Overcast
10:52 PM 45.0 °F 42.6 °F 36.0 °F 71% 30.38 in 10.0 mi NNW 4.6 mph - N/A   Partly Cloudy
11:52 PM 45.0 °F 42.6 °F 35.1 °F 68% 30.37 in 10.0 mi NNW 4.6 mph - N/A   Scattered Clouds